TimeCST,TemperatureF,Dew PointF,Humidity,Sea Level PressureIn,VisibilityMPH,Wind Direction,Wind SpeedMPH,Gust SpeedMPH,PrecipitationIn,Events,Conditions,WindDirDegrees,DateUTC
12:53 AM,51.1,26.1,38,29.94,9.0,WNW,21.9,36.8,N/A,,Overcast,290,2012-01-01 06:53:00
1:53 AM,46.4,32.0,57,30.00,10.0,WNW,13.8,27.6,N/A,,Mostly Cloudy,290,2012-01-01 07:53:00
2:53 AM,45.0,33.1,63,30.05,10.0,WNW,21.9,35.7,N/A,,Overcast,290,2012-01-01 08:53:00
3:53 AM,44.1,33.1,65,30.10,10.0,WNW,16.1,27.6,N/A,,Scattered Clouds,290,2012-01-01 09:53:00
4:37 AM,44.6,33.8,66,30.14,10.0,WNW,11.5,24.2,N/A,,Overcast,300,2012-01-01 10:37:00
4:46 AM,44.6,33.8,66,30.15,10.0,WNW,15.0,23.0,N/A,,Overcast,300,2012-01-01 10:46:00
4:53 AM,44.1,33.1,65,30.16,10.0,NW,16.1,24.2,N/A,,Overcast,320,2012-01-01 10:53:00
5:53 AM,41.0,30.9,67,30.22,10.0,WNW,10.4,-,N/A,,Clear,290,2012-01-01 11:53:00
6:53 AM,39.0,28.9,67,30.25,10.0,WNW,9.2,-,N/A,,Clear,290,2012-01-01 12:53:00
7:53 AM,39.0,28.0,65,30.30,10.0,WNW,13.8,20.7,N/A,,Clear,300,2012-01-01 13:53:00
8:53 AM,41.0,28.0,60,30.32,10.0,WNW,13.8,23.0,N/A,,Clear,300,2012-01-01 14:53:00
9:53 AM,42.8,26.6,53,30.35,10.0,NW,17.3,24.2,N/A,,Clear,310,2012-01-01 15:53:00
10:53 AM,45.0,23.0,42,30.38,10.0,NW,16.1,28.8,N/A,,Clear,310,2012-01-01 16:53:00
11:53 AM,46.9,19.9,34,30.37,10.0,NW,12.7,17.3,N/A,,Clear,310,2012-01-01 17:53:00
12:53 PM,48.9,19.0,31,30.39,10.0,NW,13.8,24.2,N/A,,Clear,310,2012-01-01 18:53:00
1:53 PM,48.9,16.0,27,30.40,10.0,NW,15.0,27.6,N/A,,Clear,310,2012-01-01 19:53:00
2:53 PM,48.9,15.1,26,30.41,10.0,WNW,13.8,24.2,N/A,,Clear,300,2012-01-01 20:53:00
3:53 PM,48.0,14.0,26,30.42,10.0,WNW,17.3,27.6,N/A,,Clear,300,2012-01-01 21:53:00
4:53 PM,46.0,14.0,28,30.43,10.0,WNW,12.7,19.6,N/A,,Clear,300,2012-01-01 22:53:00
5:53 PM,43.0,16.0,34,30.45,10.0,WNW,12.7,-,N/A,,Clear,300,2012-01-01 23:53:00
6:53 PM,41.0,17.1,38,30.47,10.0,WNW,6.9,-,N/A,,Clear,300,2012-01-02 00:53:00
7:53 PM,41.0,17.1,38,30.47,10.0,WNW,11.5,-,N/A,,Clear,300,2012-01-02 01:53:00
8:53 PM,39.0,17.1,41,30.48,10.0,WNW,9.2,-,N/A,,Clear,300,2012-01-02 02:53:00
9:53 PM,37.4,17.6,45,30.47,10.0,WNW,8.1,-,N/A,,Clear,300,2012-01-02 03:53:00
10:53 PM,37.9,17.1,43,30.49,10.0,NW,10.4,-,N/A,,Clear,320,2012-01-02 04:53:00
11:53 PM,36.0,15.1,43,30.49,10.0,NW,12.7,18.4,N/A,,Clear,310,2012-01-02 05:53:00